TimeCEST,TemperatureF,Dew PointF,Humidity,Sea Level PressureIn,VisibilityMPH,Wind Direction,Wind SpeedMPH,Gust SpeedMPH,PrecipitationIn,Events,Conditions,WindDirDegrees,DateUTC
12:00 AM,42.8,39.2,87,29.71,-9999.0,West,8.1,-,N/A,,Clear,270,2013-09-17 22:00:00
12:30 AM,42.8,39.2,87,29.71,-9999.0,West,5.8,-,N/A,,Clear,280,2013-09-17 22:30:00
1:00 AM,42.8,41.0,93,29.71,-9999.0,WNW,4.6,-,N/A,,Clear,290,2013-09-17 23:00:00
1:30 AM,42.8,39.2,87,29.68,-9999.0,South,2.3,-,N/A,,Clear,180,2013-09-17 23:30:00
2:00 AM,42,40,88,29.72,12,Calm,Calm,,,,Clear,,2013-09-18 00:00:00
2:00 AM,41.0,39.2,93,29.68,-9999.0,Calm,Calm,-,N/A,,Clear,0,2013-09-18 00:00:00
2:30 AM,41.0,39.2,93,29.68,-9999.0,SSE,2.3,-,N/A,,Clear,150,2013-09-18 00:30:00
3:00 AM,41.0,39.2,93,29.68,-9999.0,ESE,3.5,-,N/A,,Clear,110,2013-09-18 01:00:00
3:30 AM,41.0,39.2,93,29.68,-9999.0,Variable,1.2,-,N/A,,Clear,0,2013-09-18 01:30:00
4:00 AM,41.0,39.2,93,29.65,-9999.0,NNE,1.2,-,N/A,,Clear,20,2013-09-18 02:00:00
4:30 AM,39.2,37.4,93,29.65,-9999.0,Calm,Calm,-,N/A,,Clear,0,2013-09-18 02:30:00
5:00 AM,41.0,39.2,93,29.62,-9999.0,Variable,2.3,-,N/A,,Clear,0,2013-09-18 03:00:00
5:30 AM,39.2,37.4,93,29.62,-9999.0,East,3.5,-,N/A,,Clear,100,2013-09-18 03:30:00
6:00 AM,41.0,39.2,93,29.62,-9999.0,NE,4.6,-,N/A,,Clear,40,2013-09-18 04:00:00
6:30 AM,37.4,37.4,100,29.62,6.2,NE,1.2,-,N/A,Fog,Shallow Fog,50,2013-09-18 04:30:00
7:00 AM,39.2,37.4,93,29.62,-9999.0,NNE,3.5,-,N/A,,Clear,30,2013-09-18 05:00:00
7:30 AM,42.8,41.0,93,29.62,6.2,ENE,3.5,-,N/A,,Partly Cloudy,60,2013-09-18 05:30:00
8:00 AM,42,40,89,29.65,12,ENE,6.7,,,Fog,Shallow Fog,70,2013-09-18 06:00:00
8:00 AM,41.0,39.2,93,29.62,6.2,NE,4.6,-,N/A,Fog,Shallow Fog,50,2013-09-18 06:00:00
8:30 AM,42.8,41.0,93,29.62,6.2,ENE,5.8,-,N/A,Fog,Shallow Fog,70,2013-09-18 06:30:00
9:00 AM,46.4,42.8,87,29.59,6.2,East,4.6,-,N/A,,Partly Cloudy,100,2013-09-18 07:00:00
9:30 AM,46.4,42.8,87,29.59,6.2,SE,4.6,-,N/A,,Partly Cloudy,130,2013-09-18 07:30:00
10:00 AM,48.2,42.8,82,29.59,6.2,SE,5.8,-,N/A,,Partly Cloudy,140,2013-09-18 08:00:00
10:08 AM,48.2,44.6,87,29.59,6.2,SE,6.9,-,N/A,Rain,Light Rain,130,2013-09-18 08:08:00
10:30 AM,48.2,44.6,87,29.59,6.2,SE,6.9,-,N/A,Rain,Light Rain,130,2013-09-18 08:30:00
11:00 AM,50.0,44.6,82,29.59,6.2,SE,6.9,-,N/A,Rain,Light Rain,140,2013-09-18 09:00:00
11:30 AM,50.0,46.4,87,29.59,6.2,South,5.8,-,N/A,Rain,Light Rain,170,2013-09-18 09:30:00
12:00 PM,51.8,46.4,82,29.56,6.2,South,6.9,-,N/A,,Scattered Clouds,180,2013-09-18 10:00:00
12:30 PM,53.6,46.4,77,29.56,6.2,SSE,10.4,-,N/A,,Scattered Clouds,150,2013-09-18 10:30:00
1:00 PM,53.6,44.6,72,29.53,6.2,South,9.2,-,N/A,,Scattered Clouds,170,2013-09-18 11:00:00
1:30 PM,55.4,44.6,67,29.53,6.2,South,10.4,-,N/A,,Mostly Cloudy,190,2013-09-18 11:30:00
1:51 PM,53.6,44.6,72,29.53,6.2,South,8.1,-,N/A,Rain,Light Rain,190,2013-09-18 11:51:00
2:00 PM,54,44,61,29.54,16,South,6.7,,,Rain,Light Rain,180,2013-09-18 12:00:00
2:00 PM,53.6,44.6,72,29.53,6.2,South,8.1,-,N/A,Rain,Light Rain,190,2013-09-18 12:00:00
2:30 PM,53.6,46.4,77,29.53,6.2,South,9.2,-,N/A,Rain,Light Rain,180,2013-09-18 12:30:00
3:00 PM,53.6,46.4,77,29.50,6.2,South,9.2,-,N/A,,Mostly Cloudy,170,2013-09-18 13:00:00
3:30 PM,53.6,48.2,82,29.50,6.2,South,9.2,-,N/A,,Mostly Cloudy,170,2013-09-18 13:30:00
4:00 PM,53.6,48.2,82,29.50,6.2,South,8.1,-,N/A,,Mostly Cloudy,180,2013-09-18 14:00:00
4:08 PM,53.6,48.2,82,29.50,6.2,South,6.9,-,N/A,Rain,Light Rain,170,2013-09-18 14:08:00
4:30 PM,53.6,48.2,82,29.50,6.2,SSE,5.8,-,N/A,Rain,Light Rain,160,2013-09-18 14:30:00
5:00 PM,53.6,50.0,88,29.50,6.2,SE,5.8,-,N/A,Rain,Light Rain,140,2013-09-18 15:00:00
5:30 PM,53.6,50.0,88,29.50,6.2,SE,5.8,-,N/A,Rain,Light Rain,130,2013-09-18 15:30:00
6:00 PM,53.6,51.8,94,29.50,6.2,SSE,8.1,-,N/A,Rain,Light Rain,150,2013-09-18 16:00:00
6:30 PM,53.6,51.8,94,29.50,6.2,SSE,6.9,-,N/A,Rain,Light Rain,150,2013-09-18 16:30:00
7:00 PM,53.6,51.8,94,29.50,6.2,SE,5.8,-,N/A,Rain,Light Rain,130,2013-09-18 17:00:00
7:06 PM,53.6,51.8,94,29.50,6.2,ESE,5.8,-,N/A,Rain,Light Rain,120,2013-09-18 17:06:00
7:13 PM,53.6,51.8,94,29.50,5.0,ESE,5.8,-,N/A,Rain,Light Rain,120,2013-09-18 17:13:00
7:30 PM,53.6,51.8,94,29.50,5.0,East,4.6,-,N/A,Rain,Light Rain,100,2013-09-18 17:30:00
7:42 PM,53.6,51.8,94,29.47,5.0,NE,4.6,-,N/A,Rain,Light Rain,40,2013-09-18 17:42:00
8:00 PM,53,51,92,29.50,9,NE,6.7,,,Rain,Light Rain,50,2013-09-18 18:00:00
8:00 PM,53.6,51.8,94,29.47,6.2,NE,5.8,-,N/A,Rain,Light Rain,50,2013-09-18 18:00:00
8:30 PM,53.6,51.8,94,29.50,6.2,NE,4.6,-,N/A,Rain,Light Rain,40,2013-09-18 18:30:00
9:00 PM,53.6,51.8,94,29.50,6.2,North,4.6,-,N/A,Rain,Light Rain,10,2013-09-18 19:00:00
9:30 PM,53.6,51.8,94,29.50,6.2,Variable,2.3,-,N/A,Rain,Light Rain,0,2013-09-18 19:30:00
10:00 PM,53.6,51.8,94,29.53,6.2,NW,2.3,-,N/A,,Scattered Clouds,310,2013-09-18 20:00:00
10:30 PM,53.6,51.8,94,29.53,6.2,WNW,4.6,-,N/A,Rain,Light Rain,300,2013-09-18 20:30:00
11:00 PM,53.6,51.8,94,29.53,6.2,NW,5.8,-,N/A,,Scattered Clouds,310,2013-09-18 21:00:00
11:30 PM,51.8,50.0,94,29.53,6.2,West,6.9,-,N/A,,Scattered Clouds,270,2013-09-18 21:30:00